Regional Weather Roundup
Issued by NWS

Home | Current Version | Previous Version | Text Only | Print | Product List | Glossary Off
Versions: 1 2 3 4 5 6 7 8 9 10 11 12 13 14 15 16 17 18 19 20 21 22 23 24 25 26 27 28 29 30 31 32 33 34 35 36 37 38 39 40 41 42 43 44 45 46 47 48 49 50

000
ASUS43 KLOT 262003
RWRIL

ILLINOIS REGIONAL WEATHER ROUNDUP
NATIONAL WEATHER SERVICE CHICAGO/ROMEOVILLE IL
300 PM CDT TUE JUL 26 2016

NOTE: "FAIR" INDICATES FEW OR NO CLOUDS BELOW 12,000 FEET WITH NO
SIGNIFICANT WEATHER AND/OR OBSTRUCTIONS TO VISIBILITY.

* THESE STATIONS ARE NOT UNDER NWS QUALITY CONTROL. THEY ALSO MAY NOT
  REPORT WEATHER SUCH AS PRECIPITATION OR FOG.

ILZ001-002-007-009-015-016-024-262100-
NORTHWEST ILLINOIS

CITY           SKY/WX    TMP DP  RH WIND       PRES   REMARKS
MOLINE         SUNNY     86  62  44 E6        30.02F HX  86
STERLING*      SUNNY     85  67  54 CALM      30.04F HX  87
SAVANNA*       PTSUNNY   84  64  50 NE5       30.03F HX  85
$$

ILZ003-004-008-010-011-017-018-262100-
NORTH CENTRAL ILLINOIS

CITY           SKY/WX    TMP DP  RH WIND       PRES   REMARKS
ROCKFORD       MOSUNNY   86  64  47 W6        30.05F HX  87
FREEPORT*      SUNNY     83  64  52 N3        30.07F HX  84
ROCHELLE*      PTSUNNY   83  66  55 CALM      30.05F HX  85
DE KALB*       SUNNY     84  65  51 NW6       30.05F HX  86
$$

ILZ005-006-012>014-019>023-262100-
NORTHEAST ILLINOIS

CITY           SKY/WX    TMP DP  RH WIND       PRES   REMARKS
CHICAGO-OHARE  PTSUNNY   85  64  49 E12       30.02F HX  86
CHICAGO-MIDWAY MOSUNNY   86  64  47 E13       30.02F HX  87
AURORA         MOSUNNY   85  66  53 W5        30.04F HX  87
LANSING*       SUNNY     85  65  50 S7        30.03S HX  87
WAUKEGAN       SUNNY     83  63  50 E7        30.03F HX  84
DUPAGE AIRPORT MOSUNNY   86  65  49 SW9       30.03S HX  88
KANKAKEE*      PTSUNNY   82  67  59 SE3       30.04S HX  85
WHEELING       SUNNY     84  63  49 E5        30.04S HX  85
MORRIS*        MOSUNNY   84  67  56 CALM      30.02F HX  87
NORTHERLY ISL    N/A     79  69  71 NE7         N/A  HX  81
$$

LMZ740>746-262100-
SOUTHERN LAKE MICHIGAN

STATION/POSITION SKY/WX   TEMP    WIND        PRES    VSBY  WAVE
                          AIR SEA DIR/SP/G                  HT/PER
                          (F)     (DEG/KT/KT) (MB)    (MI)  (FT/S)
SOUTHERN BUOY              76 77  190/  6/  6 1016.9          0
WILMETTE HARBOR            78 74  140/  4/  6   N/A           0
HARRISON CRIB              79     100/  8/  9   N/A
BURNHAM HARBOR             79      60/  5/  6   N/A
CALUMET HARBOR             78      40/  7/  9 1016.7F
BURNS HARBOR               77      40/  8/  8 1017.6F
MICHIGAN CITY              77     350/  8/  9   N/A
MICHIGAN CITY 6N           77 77   10/  6/  8   N/A           0
ST. JOSEPH                 77 78  310/  6/  8 1017.2F         0
$$

ILZ025>027-034>036-040-047-049-050-058-095>099-262100-
WEST-CENTRAL ILLINOIS

CITY           SKY/WX    TMP DP  RH WIND       PRES   REMARKS
QUINCY         SUNNY     86  64  47 N6        30.02F HX  87
GALESBURG*     CLOUDY    83  65  54 CALM      30.04S HX  85
MACOMB*        SUNNY     85  65  51 CALM      30.05F HX  86
JACKSONVILLE*  MOSUNNY   85  67  53 CALM      30.01F HX  88
PITTSFIELD*    MOSUNNY   86  71  59 CALM      30.03F HX  91
$$

ILZ028>032-037-038-041>044-048-051>054-059>061-262100-
CENTRAL ILLINOIS

CITY           SKY/WX    TMP DP  RH WIND       PRES   REMARKS
PONTIAC        PTSUNNY   84  72  67 CALM      30.03F HX  90
BLOOMINGTON    MOSUNNY   83  69  62 E6        30.04F HX  86
DECATUR        SUNNY     84  70  62 E7        30.03F HX  88
PEORIA         PTSUNNY   86  67  52 N5        30.02F HX  89
LACON*         MOSUNNY   84  68  58 CALM      30.01F HX  87
LINCOLN*       MOSUNNY   85  71  62 SE5       30.02F HX  91
SPRINGFIELD    SUNNY     87  67  51 VRB3      30.02F HX  90
TAYLORVILLE    CLOUDY    83  72  69 MISG      30.01F HX  88
$$

ILZ033-039-045-046-055>057-062-063-262100-
EAST-CENTRAL ILLINOIS

CITY           SKY/WX    TMP DP  RH WIND       PRES   REMARKS
CHAMPAIGN      SUNNY     82  69  64 SE5       30.04F HX  85
MATTOON        SUNNY     81  66  60 VRB5      30.01F HX  83
PARIS*         SUNNY     82  67  61 CALM      30.03F HX  84
$$

ILZ079-100>102-262100-
SOUTHWEST ILLINOIS

CITY           SKY/WX    TMP DP  RH WIND       PRES   REMARKS
ALTON          PTSUNNY   84  73  70 N7        29.99F HX  91
BELLEVILLE     MOSUNNY   87  76  70 E5        29.97F HX  97
CAHOKIA*       CLOUDY    92  73  53 CALM      29.97F HX 100
SPARTA*        CLOUDY    78  76  95 S5        30.00F
$$

ILZ064>066-069>071-074>076-080>082-084>086-088>090-092>094-262100-
SOUTH-CENTRAL ILLINOIS

CITY           SKY/WX    TMP DP  RH WIND       PRES   REMARKS
CARBONDALE     CLOUDY    81  75  82 S13       30.00S THUNDER HX  87
CAIRO*         PTSUNNY   80  76  88 N14       29.97R THUNDER HX  85
EFFINGHAM*     MOSUNNY   82  74  77 E5        30.02F HX  88
MARION         MOSUNNY   79  77  94 S6        30.01R HX  83
MT. VERNON     MOSUNNY   88  73  62 MISG      29.98S HX  96
CENTRALIA*     PTSUNNY   85  77  77 N5        29.99S HX  96
SALEM*         MOSUNNY   87  76  68 N5        29.99F HX  97
METROPOLIS*    MOSUNNY   91  78  64 CALM      29.96F HX 105
$$

ILZ067-068-072-073-078-083-087-091-262100-
SOUTHEAST ILLINOIS

CITY           SKY/WX    TMP DP  RH WIND       PRES   REMARKS
LAWRENCEVILLE  MOSUNNY   86  74  67 N6        29.99F HX  94
FLORA*         MOSUNNY   86  76  70 N3        30.00S HX  96
FAIRFIELD*     CLOUDY    86  75  69 CALM      29.97S HX  94
HARRISBURG*    TSTM      84  78  82 CALM      29.98S HX  95
ROBINSON*      MOSUNNY   82  73  75 E5        30.01F HX  87
CARMI*         MOSUNNY   86  76  71 CALM      29.97F HX  97
$$

ABBREVIATIONS USED IN REMARKS
   TC - TEMPERATURE IN CELSIUS
  WCI - WIND CHILL INDEX
   HX - HEAT INDEX
  VSB - VISIBILITY
$$





USA.gov is the U.S. government's official web portal to all federal, state and local government web resources and services.